Location: Innerarity Island Observatory
(30.3139°N, 87.4867°W)
Time: 23:58:19
(UTC-06:00)

JAS-2 - Visible Passes

Search period start: 17 December 2014 00:00
Search period end: 27 December 2014 00:00
Orbit: 800 x 1322 km, 98.5° (Epoch: 17 December)

Date Brightness Start Highest point End Pass type
(mag) Time Alt. Az. Time Alt. Az. Time Alt. Az.
17 Dec 11.9 03:46:44 10° ENE 03:49:45 15° E 03:52:40 10° SE visible
17 Dec 9.4 05:29:51 10° N 05:35:12 46° WNW 05:40:10 10° SW visible
17 Dec 12.0 17:18:20 10° SSW 17:25:10 33° W 17:31:45 10° NW visible
18 Dec 10.0 04:34:51 10° NNE 04:40:13 50° E 04:45:14 10° S visible
18 Dec 13.0 18:13:15 10° WSW 18:15:39 12° W 18:18:01 10° WNW visible
19 Dec 12.0 03:42:17 10° ENE 03:44:45 13° E 03:47:10 10° ESE visible
19 Dec 9.3 05:24:55 10° N 05:30:15 50° WNW 05:35:15 10° SSW visible
19 Dec 11.9 17:13:25 10° SSW 17:20:21 35° W 17:26:58 10° NW visible
20 Dec 10.2 04:30:01 10° NNE 04:35:14 45° E 04:40:09 10° S visible
20 Dec 10.6 06:16:36 10° NNW 06:19:50 16° WNW 06:22:58 10° WSW visible
20 Dec 12.9 18:07:47 10° WSW 18:10:47 13° W 18:13:45 10° WNW visible
21 Dec 12.1 03:37:59 10° ENE 03:39:45 12° E 03:41:29 10° ESE visible
21 Dec 9.2 05:19:58 10° N 05:25:18 55° WNW 05:30:19 10° SSW visible
22 Dec 10.4 04:25:11 10° NNE 04:30:14 40° E 04:35:03 10° SSE visible
22 Dec 10.5 06:11:29 10° NNW 06:14:56 17° WNW 06:18:16 10° WSW visible
22 Dec 12.9 18:02:27 10° WSW 18:05:56 14° W 18:09:19 10° WNW visible
23 Dec 12.2 03:34:20 10° E 03:34:44 10° E 03:35:09 10° E visible
23 Dec 9.1 05:15:01 10° N 05:20:20 60° WNW 05:25:23 10° SSW visible
24 Dec 10.5 04:20:21 10° NNE 04:25:14 36° E 04:29:57 10° SSE visible
24 Dec 10.4 06:06:23 10° NNW 06:10:01 19° WNW 06:13:33 10° WSW visible
24 Dec 12.8 17:57:13 10° SW 18:01:04 15° W 18:04:48 10° WNW visible
25 Dec 9.0 05:10:04 10° N 05:15:21 66° WNW 05:20:27 10° SSW visible
26 Dec 10.7 04:15:31 10° NE 04:20:14 33° E 04:24:51 10° SSE visible
26 Dec 10.3 06:01:17 10° NNW 06:05:05 20° WNW 06:08:49 10° WSW visible
26 Dec 12.7 17:52:03 10° SW 17:56:12 16° W 18:00:13 10° WNW visible
